Time,TemperatureF,DewpointF,PressureIn,WindDirection,WindDirectionDegrees,WindSpeedMPH,WindSpeedGustMPH,Humidity,HourlyPrecipIn,Conditions,Clouds,dailyrainin,SoftwareType,DateUTC
2013-07-02 00:02:00,70.3,62.4,30.06,WNW,285,1.0,3.0,76,0.00,,,0.00,WeatherCatV1.15B25,2013-07-02 07:02:00,
2013-07-02 00:07:00,70.1,62.2,30.07,West,273,0.0,0.0,76,0.00,,,0.00,WeatherCatV1.15B25,2013-07-02 07:07:00,
2013-07-02 00:12:00,69.8,62.3,30.07,WNW,300,1.0,3.0,77,0.00,,,0.00,WeatherCatV1.15B25,2013-07-02 07:12:00,
2013-07-02 00:17:00,69.6,62.4,30.07,WNW,300,0.0,1.0,78,0.00,,,0.00,WeatherCatV1.15B25,2013-07-02 07:17:00,
2013-07-02 00:22:00,69.4,62.6,30.07,West,262,1.0,1.0,79,0.00,,,0.00,WeatherCatV1.15B25,2013-07-02 07:22:00,
2013-07-02 00:27:00,69.5,62.0,30.08,West,259,0.0,0.0,77,0.00,,,0.00,WeatherCatV1.15B25,2013-07-02 07:27:00,
2013-07-02 00:32:00,69.4,62.2,30.08,WSW,257,0.0,0.0,78,0.00,,,0.00,WeatherCatV1.15B25,2013-07-02 07:32:00,
2013-07-02 00:37:00,69.1,62.3,30.08,West,259,0.0,1.0,79,0.00,,,0.00,WeatherCatV1.15B25,2013-07-02 07:37:00,
2013-07-02 00:42:00,68.8,62.0,30.08,SW,225,1.0,2.0,79,0.00,,,0.00,WeatherCatV1.15B25,2013-07-02 07:42:00,
2013-07-02 00:47:00,68.6,62.5,30.08,SW,225,0.0,1.0,81,0.00,,,0.00,WeatherCatV1.15B25,2013-07-02 07:47:00,
2013-07-02 00:52:00,68.6,62.2,30.08,South,176,1.0,1.0,80,0.00,,,0.00,WeatherCatV1.15B25,2013-07-02 07:52:00,
2013-07-02 00:57:00,68.5,62.1,30.08,SSW,208,1.0,1.0,80,0.00,,,0.00,WeatherCatV1.15B25,2013-07-02 07:57:00,
2013-07-02 01:02:00,68.2,61.8,30.08,SSW,212,1.0,1.0,80,0.00,,,0.00,WeatherCatV1.15B25,2013-07-02 08:02:00,
2013-07-02 01:07:00,68.0,61.9,30.09,SSW,211,1.0,2.0,81,0.00,,,0.00,WeatherCatV1.15B25,2013-07-02 08:07:00,
2013-07-02 01:12:00,67.9,61.8,30.09,SSW,207,1.0,1.0,81,0.00,,,0.00,WeatherCatV1.15B25,2013-07-02 08:12:00,
2013-07-02 01:17:00,67.7,61.7,30.09,SW,235,0.0,3.0,81,0.00,,,0.00,WeatherCatV1.15B25,2013-07-02 08:17:00,
2013-07-02 01:22:00,67.9,61.8,30.09,SW,236,0.0,0.0,81,0.00,,,0.00,WeatherCatV1.15B25,2013-07-02 08:22:00,
2013-07-02 01:27:00,67.7,61.7,30.10,SW,236,0.0,0.0,81,0.00,,,0.00,WeatherCatV1.15B25,2013-07-02 08:27:00,
2013-07-02 01:32:00,67.4,61.4,30.10,SW,215,1.0,1.0,81,0.00,,,0.00,WeatherCatV1.15B25,2013-07-02 08:32:00,
2013-07-02 01:37:00,67.2,61.5,30.10,SSW,200,1.0,2.0,82,0.00,,,0.00,WeatherCatV1.15B25,2013-07-02 08:37:00,
2013-07-02 01:42:00,67.3,61.6,30.10,WSW,257,0.0,3.0,82,0.00,,,0.00,WeatherCatV1.15B25,2013-07-02 08:42:00,
2013-07-02 01:47:00,67.1,61.4,30.10,SSW,199,4.0,4.0,82,0.00,,,0.00,WeatherCatV1.15B25,2013-07-02 08:47:00,
2013-07-02 01:52:00,66.7,61.0,30.10,South,174,2.0,3.0,82,0.00,,,0.00,WeatherCatV1.15B25,2013-07-02 08:52:00,
2013-07-02 01:57:00,66.5,61.2,30.11,SW,214,2.0,3.0,83,0.00,,,0.00,WeatherCatV1.15B25,2013-07-02 08:57:00,
2013-07-02 02:02:00,66.3,61.0,30.10,SW,227,1.0,2.0,83,0.00,,,0.00,WeatherCatV1.15B25,2013-07-02 09:02:00,
2013-07-02 02:07:00,66.2,60.9,30.10,SE,134,2.0,2.0,83,0.00,,,0.00,WeatherCatV1.15B25,2013-07-02 09:07:00,
2013-07-02 02:12:00,66.1,60.8,30.11,SSE,153,3.0,4.0,83,0.00,,,0.00,WeatherCatV1.15B25,2013-07-02 09:12:00,
2013-07-02 02:17:00,65.9,60.9,30.11,SSE,159,1.0,1.0,84,0.00,,,0.00,WeatherCatV1.15B25,2013-07-02 09:17:00,
2013-07-02 02:22:00,65.7,60.7,30.11,SE,139,1.0,2.0,84,0.00,,,0.00,WeatherCatV1.15B25,2013-07-02 09:22:00,
2013-07-02 02:27:00,65.5,60.5,30.11,SSE,159,1.0,1.0,84,0.00,,,0.00,WeatherCatV1.15B25,2013-07-02 09:27:00,
2013-07-02 02:32:00,65.4,60.4,30.10,SSE,159,0.0,1.0,84,0.00,,,0.00,WeatherCatV1.15B25,2013-07-02 09:32:00,
2013-07-02 02:37:00,65.2,60.2,30.10,SE,127,0.0,0.0,84,0.00,,,0.00,WeatherCatV1.15B25,2013-07-02 09:37:00,
2013-07-02 02:42:00,65.1,60.5,30.11,SE,128,1.0,1.0,85,0.00,,,0.00,WeatherCatV1.15B25,2013-07-02 09:42:00,
2013-07-02 02:47:00,65.0,60.7,30.11,SW,236,1.0,2.0,86,0.00,,,0.00,WeatherCatV1.15B25,2013-07-02 09:47:00,
2013-07-02 02:52:00,64.9,60.6,30.11,SW,236,0.0,0.0,86,0.00,,,0.00,WeatherCatV1.15B25,2013-07-02 09:52:00,
2013-07-02 02:57:00,64.8,60.8,30.11,SW,236,0.0,0.0,87,0.00,,,0.00,WeatherCatV1.15B25,2013-07-02 09:57:00,
2013-07-02 03:02:00,64.7,60.7,30.11,WSW,255,1.0,1.0,87,0.00,,,0.00,WeatherCatV1.15B25,2013-07-02 10:02:00,
2013-07-02 03:07:00,64.5,60.5,30.11,West,267,0.0,2.0,87,0.00,,,0.00,WeatherCatV1.15B25,2013-07-02 10:07:00,
2013-07-02 03:12:00,64.4,60.4,30.11,WNW,297,0.0,1.0,87,0.00,,,0.00,WeatherCatV1.15B25,2013-07-02 10:12:00,
2013-07-02 03:17:00,64.2,60.2,30.10,WNW,284,1.0,1.0,87,0.00,,,0.00,WeatherCatV1.15B25,2013-07-02 10:17:00,
2013-07-02 03:22:00,64.0,60.0,30.10,WNW,284,0.0,1.0,87,0.00,,,0.00,WeatherCatV1.15B25,2013-07-02 10:22:00,
2013-07-02 03:27:00,63.8,60.2,30.10,WNW,282,1.0,1.0,88,0.00,,,0.00,WeatherCatV1.15B25,2013-07-02 10:27:00,
2013-07-02 03:32:00,63.6,59.7,30.10,West,262,0.0,3.0,87,0.00,,,0.00,WeatherCatV1.15B25,2013-07-02 10:32:00,
2013-07-02 03:37:00,63.5,59.6,30.10,West,278,1.0,2.0,87,0.00,,,0.00,WeatherCatV1.15B25,2013-07-02 10:37:00,
2013-07-02 03:42:00,63.4,59.8,30.10,West,278,1.0,2.0,88,0.00,,,0.00,WeatherCatV1.15B25,2013-07-02 10:42:00,
2013-07-02 03:47:00,63.2,59.6,30.10,WNW,284,0.0,1.0,88,0.00,,,0.00,WeatherCatV1.15B25,2013-07-02 10:47:00,
2013-07-02 03:52:00,63.1,59.5,30.10,WSW,256,0.0,1.0,88,0.00,,,0.00,WeatherCatV1.15B25,2013-07-02 10:52:00,
2013-07-02 03:57:00,63.2,59.6,30.09,WSW,249,0.0,0.0,88,0.00,,,0.00,WeatherCatV1.15B25,2013-07-02 10:57:00,
2013-07-02 04:02:00,62.9,59.0,30.09,WNW,291,0.0,0.0,87,0.00,,,0.00,WeatherCatV1.15B25,2013-07-02 11:02:00,
2013-07-02 04:07:00,62.8,59.2,30.09,WNW,290,0.0,1.0,88,0.00,,,0.00,WeatherCatV1.15B25,2013-07-02 11:07:00,
2013-07-02 04:12:00,62.5,58.9,30.09,WNW,290,0.0,0.0,88,0.00,,,0.00,WeatherCatV1.15B25,2013-07-02 11:12:00,
2013-07-02 04:17:00,62.3,59.0,30.09,WNW,290,1.0,1.0,89,0.00,,,0.00,WeatherCatV1.15B25,2013-07-02 11:17:00,
2013-07-02 04:22:00,62.2,58.9,30.09,WNW,288,1.0,1.0,89,0.00,,,0.00,WeatherCatV1.15B25,2013-07-02 11:22:00,
2013-07-02 04:27:00,62.0,58.7,30.09,West,274,0.0,1.0,89,0.00,,,0.00,WeatherCatV1.15B25,2013-07-02 11:27:00,
2013-07-02 04:32:00,61.8,58.8,30.09,West,274,0.0,0.0,90,0.00,,,0.00,WeatherCatV1.15B25,2013-07-02 11:32:00,
2013-07-02 04:37:00,61.8,58.8,30.09,West,267,0.0,1.0,90,0.00,,,0.00,WeatherCatV1.15B25,2013-07-02 11:37:00,
2013-07-02 04:42:00,61.6,58.6,30.09,West,267,0.0,0.0,90,0.00,,,0.00,WeatherCatV1.15B25,2013-07-02 11:42:00,
2013-07-02 04:47:00,61.4,58.4,30.09,West,267,0.0,1.0,90,0.00,,,0.00,WeatherCatV1.15B25,2013-07-02 11:47:00,
2013-07-02 04:52:00,61.4,58.7,30.08,West,267,0.0,1.0,91,0.00,,,0.00,WeatherCatV1.15B25,2013-07-02 11:52:00,
2013-07-02 04:57:00,61.3,58.3,30.09,West,278,1.0,2.0,90,0.00,,,0.00,WeatherCatV1.15B25,2013-07-02 11:57:00,
2013-07-02 05:02:00,61.2,58.5,30.09,West,276,1.0,2.0,91,0.00,,,0.00,WeatherCatV1.15B25,2013-07-02 12:02:00,
2013-07-02 05:07:00,61.1,58.4,30.10,West,277,0.0,2.0,91,0.00,,,0.00,WeatherCatV1.15B25,2013-07-02 12:07:00,
2013-07-02 05:12:00,61.0,58.3,30.09,SW,229,1.0,2.0,91,0.00,,,0.00,WeatherCatV1.15B25,2013-07-02 12:12:00,
2013-07-02 05:17:00,60.9,58.3,30.09,WNW,300,0.0,1.0,91,0.00,,,0.00,WeatherCatV1.15B25,2013-07-02 12:17:00,
2013-07-02 05:22:00,60.8,58.2,30.09,WNW,285,1.0,2.0,91,0.00,,,0.00,WeatherCatV1.15B25,2013-07-02 12:22:00,
2013-07-02 05:27:00,60.8,58.2,30.09,WSW,248,0.0,1.0,91,0.00,,,0.00,WeatherCatV1.15B25,2013-07-02 12:27:00,
2013-07-02 05:32:00,60.7,58.1,30.10,WSW,255,0.0,0.0,91,0.00,,,0.00,WeatherCatV1.15B25,2013-07-02 12:32:00,
2013-07-02 05:37:00,60.7,58.1,30.10,WNW,285,1.0,1.0,91,0.00,,,0.00,WeatherCatV1.15B25,2013-07-02 12:37:00,
2013-07-02 05:42:00,60.7,58.1,30.10,WNW,303,1.0,2.0,91,0.00,,,0.00,WeatherCatV1.15B25,2013-07-02 12:42:00,
2013-07-02 05:47:00,60.7,58.1,30.10,West,270,0.0,1.0,91,0.00,,,0.00,WeatherCatV1.15B25,2013-07-02 12:47:00,
2013-07-02 05:52:00,60.8,58.2,30.10,WSW,243,1.0,1.0,91,0.00,,,0.00,WeatherCatV1.15B25,2013-07-02 12:52:00,
2013-07-02 05:57:00,61.0,58.3,30.11,NNW,330,0.0,0.0,91,0.00,,,0.00,WeatherCatV1.15B25,2013-07-02 12:57:00,
2013-07-02 06:02:00,61.3,58.6,30.10,West,264,1.0,2.0,91,0.00,,,0.00,WeatherCatV1.15B25,2013-07-02 13:02:00,
2013-07-02 06:07:00,61.5,58.5,30.11,West,264,2.0,2.0,90,0.00,,,0.00,WeatherCatV1.15B25,2013-07-02 13:07:00,
2013-07-02 06:12:00,61.6,58.6,30.11,West,277,1.0,2.0,90,0.00,,,0.00,WeatherCatV1.15B25,2013-07-02 13:12:00,
2013-07-02 06:17:00,61.7,59.0,30.11,NNW,342,0.0,2.0,91,0.00,,,0.00,WeatherCatV1.15B25,2013-07-02 13:17:00,
2013-07-02 06:22:00,61.9,58.9,30.11,WNW,296,1.0,2.0,90,0.00,,,0.00,WeatherCatV1.15B25,2013-07-02 13:22:00,
2013-07-02 06:27:00,62.0,59.0,30.11,SW,236,0.0,1.0,90,0.00,,,0.00,WeatherCatV1.15B25,2013-07-02 13:27:00,
2013-07-02 06:32:00,62.3,59.3,30.11,WNW,288,1.0,2.0,90,0.00,,,0.00,WeatherCatV1.15B25,2013-07-02 13:32:00,
2013-07-02 06:37:00,62.2,59.2,30.11,WNW,292,2.0,2.0,90,0.00,,,0.00,WeatherCatV1.15B25,2013-07-02 13:37:00,
2013-07-02 06:42:00,62.1,59.1,30.11,WNW,300,3.0,4.0,90,0.00,,,0.00,WeatherCatV1.15B25,2013-07-02 13:42:00,
2013-07-02 06:47:00,61.9,58.9,30.11,SSW,212,2.0,4.0,90,0.00,,,0.00,WeatherCatV1.15B25,2013-07-02 13:47:00,
2013-07-02 06:52:00,61.9,58.9,30.12,WSW,252,3.0,5.0,90,0.00,,,0.00,WeatherCatV1.15B25,2013-07-02 13:52:00,
2013-07-02 06:57:00,62.0,59.0,30.12,West,263,2.0,3.0,90,0.00,,,0.00,WeatherCatV1.15B25,2013-07-02 13:57:00,
2013-07-02 07:02:00,62.1,58.8,30.12,SSW,194,2.0,5.0,89,0.00,,,0.00,WeatherCatV1.15B25,2013-07-02 14:02:00,
2013-07-02 07:07:00,62.0,58.7,30.12,SSW,201,3.0,5.0,89,0.00,,,0.00,WeatherCatV1.15B25,2013-07-02 14:07:00,
2013-07-02 07:12:00,62.2,58.9,30.12,SW,222,2.0,3.0,89,0.00,,,0.00,WeatherCatV1.15B25,2013-07-02 14:12:00,
2013-07-02 07:17:00,62.2,58.9,30.12,SSW,212,3.0,3.0,89,0.00,,,0.00,WeatherCatV1.15B25,2013-07-02 14:17:00,
2013-07-02 07:22:00,62.2,58.9,30.12,SW,229,1.0,3.0,89,0.00,,,0.00,WeatherCatV1.15B25,2013-07-02 14:22:00,
2013-07-02 07:27:00,62.4,59.1,30.13,West,263,1.0,1.0,89,0.00,,,0.00,WeatherCatV1.15B25,2013-07-02 14:27:00,
2013-07-02 07:32:00,62.7,59.4,30.13,SW,224,2.0,2.0,89,0.00,,,0.00,WeatherCatV1.15B25,2013-07-02 14:32:00,
2013-07-02 07:37:00,62.8,59.2,30.13,SW,229,2.0,2.0,88,0.00,,,0.00,WeatherCatV1.15B25,2013-07-02 14:37:00,
2013-07-02 07:42:00,62.8,59.2,30.13,South,187,1.0,2.0,88,0.00,,,0.00,WeatherCatV1.15B25,2013-07-02 14:42:00,
2013-07-02 07:47:00,63.2,59.6,30.13,SSW,207,1.0,4.0,88,0.00,,,0.00,WeatherCatV1.15B25,2013-07-02 14:47:00,
2013-07-02 07:52:00,63.6,59.7,30.13,WNW,295,5.0,5.0,87,0.00,,,0.00,WeatherCatV1.15B25,2013-07-02 14:52:00,
2013-07-02 07:57:00,63.0,59.4,30.14,NNW,340,1.0,2.0,88,0.00,,,0.00,WeatherCatV1.15B25,2013-07-02 14:57:00,
2013-07-02 08:02:00,63.0,59.4,30.14,NW,308,2.0,2.0,88,0.00,,,0.00,WeatherCatV1.15B25,2013-07-02 15:02:00,
2013-07-02 08:07:00,63.3,59.7,30.14,NE,34,0.0,1.0,88,0.00,,,0.00,WeatherCatV1.15B25,2013-07-02 15:07:00,
2013-07-02 08:12:00,63.7,59.8,30.14,SW,226,2.0,4.0,87,0.00,,,0.00,WeatherCatV1.15B25,2013-07-02 15:12:00,
2013-07-02 08:17:00,63.5,59.2,30.14,WSW,257,3.0,5.0,86,0.00,,,0.00,WeatherCatV1.15B25,2013-07-02 15:17:00,
2013-07-02 08:22:00,63.3,59.4,30.14,West,274,3.0,6.0,87,0.00,,,0.00,WeatherCatV1.15B25,2013-07-02 15:22:00,
2013-07-02 08:27:00,63.1,59.2,30.14,SSW,198,3.0,5.0,87,0.00,,,0.00,WeatherCatV1.15B25,2013-07-02 15:27:00,
2013-07-02 08:32:00,63.0,59.4,30.14,South,179,3.0,3.0,88,0.00,,,0.00,WeatherCatV1.15B25,2013-07-02 15:32:00,
2013-07-02 08:37:00,63.4,59.5,30.14,SSW,209,4.0,5.0,87,0.00,,,0.00,WeatherCatV1.15B25,2013-07-02 15:37:00,
2013-07-02 08:42:00,63.3,59.4,30.14,SW,236,4.0,4.0,87,0.00,,,0.00,WeatherCatV1.15B25,2013-07-02 15:42:00,
2013-07-02 08:47:00,63.3,59.4,30.14,NW,307,4.0,5.0,87,0.00,,,0.00,WeatherCatV1.15B25,2013-07-02 15:47:00,
2013-07-02 08:52:00,63.4,59.5,30.14,SW,222,1.0,1.0,87,0.00,,,0.00,WeatherCatV1.15B25,2013-07-02 15:52:00,
2013-07-02 08:57:00,64.0,59.7,30.14,NNE,25,1.0,4.0,86,0.00,,,0.00,WeatherCatV1.15B25,2013-07-02 15:57:00,
2013-07-02 09:02:00,64.6,60.3,30.14,NNE,25,0.0,1.0,86,0.00,,,0.00,WeatherCatV1.15B25,2013-07-02 16:02:00,
2013-07-02 09:07:00,65.7,60.7,30.14,NE,41,2.0,2.0,84,0.00,,,0.00,WeatherCatV1.15B25,2013-07-02 16:07:00,
2013-07-02 09:12:00,66.5,60.5,30.14,WNW,295,1.0,3.0,81,0.00,,,0.00,WeatherCatV1.15B25,2013-07-02 16:12:00,
2013-07-02 09:17:00,67.2,61.2,30.13,ESE,103,1.0,2.0,81,0.00,,,0.00,WeatherCatV1.15B25,2013-07-02 16:17:00,
2013-07-02 09:22:00,67.6,60.5,30.13,WSW,246,3.0,3.0,78,0.00,,,0.00,WeatherCatV1.15B25,2013-07-02 16:22:00,
2013-07-02 09:27:00,67.5,61.1,30.13,NNE,32,1.0,2.0,80,0.00,,,0.00,WeatherCatV1.15B25,2013-07-02 16:27:00,
2013-07-02 09:32:00,68.3,61.5,30.13,SSW,200,3.0,4.0,79,0.00,,,0.00,WeatherCatV1.15B25,2013-07-02 16:32:00,
2013-07-02 09:37:00,68.4,61.3,30.13,NNE,13,1.0,1.0,78,0.00,,,0.00,WeatherCatV1.15B25,2013-07-02 16:37:00,
2013-07-02 09:42:00,68.6,61.1,30.13,WNW,300,3.0,4.0,77,0.00,,,0.00,WeatherCatV1.15B25,2013-07-02 16:42:00,
2013-07-02 09:47:00,68.5,61.4,30.13,NW,315,4.0,4.0,78,0.00,,,0.00,WeatherCatV1.15B25,2013-07-02 16:47:00,
2013-07-02 09:52:00,68.4,60.9,30.13,SW,215,5.0,7.0,77,0.00,,,0.00,WeatherCatV1.15B25,2013-07-02 16:52:00,
2013-07-02 09:57:00,67.6,60.8,30.13,SW,218,4.0,6.0,79,0.00,,,0.00,WeatherCatV1.15B25,2013-07-02 16:57:00,
2013-07-02 10:02:00,67.3,60.6,30.13,South,187,2.0,8.0,79,0.00,,,0.00,WeatherCatV1.15B25,2013-07-02 17:02:00,
2013-07-02 10:07:00,67.4,60.7,30.12,WSW,248,6.0,6.0,79,0.00,,,0.00,WeatherCatV1.15B25,2013-07-02 17:07:00,
2013-07-02 10:12:00,67.5,60.7,30.12,SSE,156,3.0,4.0,79,0.00,,,0.00,WeatherCatV1.15B25,2013-07-02 17:12:00,
2013-07-02 10:17:00,67.8,60.7,30.12,WSW,242,5.0,6.0,78,0.00,,,0.00,WeatherCatV1.15B25,2013-07-02 17:17:00,
2013-07-02 10:22:00,67.9,60.8,30.12,WNW,291,2.0,6.0,78,0.00,,,0.00,WeatherCatV1.15B25,2013-07-02 17:22:00,
2013-07-02 10:27:00,68.4,61.3,30.12,SW,229,5.0,5.0,78,0.00,,,0.00,WeatherCatV1.15B25,2013-07-02 17:27:00,
2013-07-02 10:32:00,68.7,61.2,30.12,SSE,156,3.0,6.0,77,0.00,,,0.00,WeatherCatV1.15B25,2013-07-02 17:32:00,
2013-07-02 10:37:00,69.2,61.7,30.12,SW,221,7.0,8.0,77,0.00,,,0.00,WeatherCatV1.15B25,2013-07-02 17:37:00,
2013-07-02 10:42:00,69.8,61.9,30.12,WSW,240,4.0,5.0,76,0.00,,,0.00,WeatherCatV1.15B25,2013-07-02 17:42:00,
2013-07-02 10:47:00,69.6,61.3,30.12,NW,307,4.0,11.0,75,0.00,,,0.00,WeatherCatV1.15B25,2013-07-02 17:47:00,
2013-07-02 10:52:00,70.2,61.9,30.12,WSW,239,7.0,7.0,75,0.00,,,0.00,WeatherCatV1.15B25,2013-07-02 17:52:00,
2013-07-02 10:57:00,70.2,61.5,30.12,SW,215,4.0,7.0,74,0.00,,,0.00,WeatherCatV1.15B25,2013-07-02 17:57:00,
2013-07-02 11:02:00,70.6,61.9,30.12,West,276,4.0,5.0,74,0.00,,,0.00,WeatherCatV1.15B25,2013-07-02 18:02:00,
2013-07-02 11:07:00,71.1,62.0,30.12,WSW,246,5.0,5.0,73,0.00,,,0.00,WeatherCatV1.15B25,2013-07-02 18:07:00,
2013-07-02 11:12:00,71.0,62.3,30.13,SSW,211,2.0,6.0,74,0.00,,,0.00,WeatherCatV1.15B25,2013-07-02 18:12:00,
2013-07-02 11:17:00,70.7,61.6,30.13,WNW,285,6.0,7.0,73,0.00,,,0.00,WeatherCatV1.15B25,2013-07-02 18:17:00,
2013-07-02 11:22:00,70.3,61.6,30.13,West,281,4.0,8.0,74,0.00,,,0.00,WeatherCatV1.15B25,2013-07-02 18:22:00,
2013-07-02 11:27:00,70.6,61.9,30.13,NW,318,4.0,5.0,74,0.00,,,0.00,WeatherCatV1.15B25,2013-07-02 18:27:00,
2013-07-02 11:32:00,71.0,61.9,30.13,NNW,346,3.0,7.0,73,0.00,,,0.00,WeatherCatV1.15B25,2013-07-02 18:32:00,
2013-07-02 11:37:00,70.9,61.8,30.13,NW,315,4.0,6.0,73,0.00,,,0.00,WeatherCatV1.15B25,2013-07-02 18:37:00,
2013-07-02 11:42:00,71.5,62.4,30.13,West,264,1.0,5.0,73,0.00,,,0.00,WeatherCatV1.15B25,2013-07-02 18:42:00,
2013-07-02 11:47:00,71.5,61.6,30.13,NNW,331,4.0,7.0,71,0.00,,,0.00,WeatherCatV1.15B25,2013-07-02 18:47:00,
2013-07-02 11:52:00,71.3,61.4,30.13,WNW,302,5.0,6.0,71,0.00,,,0.00,WeatherCatV1.15B25,2013-07-02 18:52:00,
2013-07-02 11:57:00,71.6,62.1,30.12,NNE,29,4.0,4.0,72,0.00,,,0.00,WeatherCatV1.15B25,2013-07-02 18:57:00,
2013-07-02 12:02:00,72.3,62.4,30.13,West,267,5.0,8.0,71,0.00,,,0.00,WeatherCatV1.15B25,2013-07-02 19:02:00,
2013-07-02 12:07:00,72.1,62.2,30.13,WSW,251,3.0,8.0,71,0.00,,,0.00,WeatherCatV1.15B25,2013-07-02 19:07:00,
2013-07-02 12:12:00,72.4,62.5,30.13,WSW,246,4.0,7.0,71,0.00,,,0.00,WeatherCatV1.15B25,2013-07-02 19:12:00,
2013-07-02 12:17:00,72.0,62.1,30.13,West,270,2.0,4.0,71,0.00,,,0.00,WeatherCatV1.15B25,2013-07-02 19:17:00,
2013-07-02 12:22:00,72.6,62.2,30.13,NW,307,3.0,4.0,70,0.00,,,0.00,WeatherCatV1.15B25,2013-07-02 19:22:00,
2013-07-02 12:27:00,72.6,62.2,30.13,SW,233,8.0,9.0,70,0.00,,,0.00,WeatherCatV1.15B25,2013-07-02 19:27:00,
2013-07-02 12:32:00,72.2,61.9,30.13,SSE,167,5.0,6.0,70,0.00,,,0.00,WeatherCatV1.15B25,2013-07-02 19:32:00,
2013-07-02 12:37:00,73.1,63.1,30.13,WNW,297,5.0,10.0,71,0.00,,,0.00,WeatherCatV1.15B25,2013-07-02 19:37:00,
2013-07-02 12:42:00,73.3,62.5,30.13,WNW,288,2.0,5.0,69,0.00,,,0.00,WeatherCatV1.15B25,2013-07-02 19:42:00,
2013-07-02 12:47:00,73.6,62.4,30.13,West,264,2.0,5.0,68,0.00,,,0.00,WeatherCatV1.15B25,2013-07-02 19:47:00,
2013-07-02 12:52:00,74.0,63.2,30.13,NW,305,3.0,6.0,69,0.00,,,0.00,WeatherCatV1.15B25,2013-07-02 19:52:00,
2013-07-02 12:57:00,73.6,62.4,30.13,WNW,285,10.0,10.0,68,0.00,,,0.00,WeatherCatV1.15B25,2013-07-02 19:57:00,
2013-07-02 13:02:00,73.9,62.7,30.13,SSW,211,2.0,7.0,68,0.00,,,0.00,WeatherCatV1.15B25,2013-07-02 20:02:00,
2013-07-02 13:07:00,73.6,62.4,30.14,West,267,4.0,7.0,68,0.00,,,0.00,WeatherCatV1.15B25,2013-07-02 20:07:00,
2013-07-02 13:12:00,73.8,62.6,30.14,WNW,301,1.0,7.0,68,0.00,,,0.00,WeatherCatV1.15B25,2013-07-02 20:12:00,
2013-07-02 13:17:00,74.2,62.9,30.13,WSW,258,8.0,8.0,68,0.00,,,0.00,WeatherCatV1.15B25,2013-07-02 20:17:00,
2013-07-02 13:22:00,74.2,62.1,30.14,WNW,292,6.0,9.0,66,0.00,,,0.00,WeatherCatV1.15B25,2013-07-02 20:22:00,
2013-07-02 13:27:00,74.6,62.9,30.13,SSW,195,1.0,2.0,67,0.00,,,0.00,WeatherCatV1.15B25,2013-07-02 20:27:00,
2013-07-02 13:32:00,75.9,63.7,30.13,WNW,282,6.0,6.0,66,0.00,,,0.00,WeatherCatV1.15B25,2013-07-02 20:32:00,
2013-07-02 13:37:00,75.8,62.3,30.13,West,270,4.0,8.0,63,0.00,,,0.00,WeatherCatV1.15B25,2013-07-02 20:37:00,
2013-07-02 13:42:00,76.8,62.3,30.13,NNW,346,2.0,7.0,61,0.00,,,0.00,WeatherCatV1.15B25,2013-07-02 20:42:00,
2013-07-02 13:47:00,78.1,63.1,30.14,SE,139,1.0,1.0,60,0.00,,,0.00,WeatherCatV1.15B25,2013-07-02 20:47:00,
2013-07-02 13:52:00,77.9,62.4,30.14,NW,305,6.0,9.0,59,0.00,,,0.00,WeatherCatV1.15B25,2013-07-02 20:52:00,
2013-07-02 13:57:00,77.7,62.7,30.14,NE,41,0.0,4.0,60,0.00,,,0.00,WeatherCatV1.15B25,2013-07-02 20:57:00,
2013-07-02 14:02:00,78.7,62.2,30.14,WSW,257,4.0,4.0,57,0.00,,,0.00,WeatherCatV1.15B25,2013-07-02 21:02:00,
2013-07-02 14:07:00,79.0,63.4,30.14,SW,223,8.0,8.0,59,0.00,,,0.00,WeatherCatV1.15B25,2013-07-02 21:07:00,
2013-07-02 14:12:00,78.8,62.8,30.14,North,354,5.0,7.0,58,0.00,,,0.00,WeatherCatV1.15B25,2013-07-02 21:12:00,
2013-07-02 14:17:00,78.8,62.8,30.14,NNW,335,2.0,3.0,58,0.00,,,0.00,WeatherCatV1.15B25,2013-07-02 21:17:00,
2013-07-02 14:22:00,79.1,63.0,30.14,NW,310,4.0,8.0,58,0.00,,,0.00,WeatherCatV1.15B25,2013-07-02 21:22:00,
2013-07-02 14:27:00,78.5,63.4,30.14,NNW,343,3.0,6.0,60,0.00,,,0.00,WeatherCatV1.15B25,2013-07-02 21:27:00,
2013-07-02 14:32:00,78.4,63.3,30.14,WNW,285,2.0,10.0,60,0.00,,,0.00,WeatherCatV1.15B25,2013-07-02 21:32:00,
2013-07-02 14:37:00,78.3,63.2,30.14,WNW,288,8.0,14.0,60,0.00,,,0.00,WeatherCatV1.15B25,2013-07-02 21:37:00,
2013-07-02 14:42:00,78.5,63.9,30.14,NNE,25,8.0,9.0,61,0.00,,,0.00,WeatherCatV1.15B25,2013-07-02 21:42:00,
2013-07-02 14:47:00,78.0,62.5,30.14,WNW,301,7.0,8.0,59,0.00,,,0.00,WeatherCatV1.15B25,2013-07-02 21:47:00,
2013-07-02 14:52:00,77.6,63.1,30.14,West,266,2.0,9.0,61,0.00,,,0.00,WeatherCatV1.15B25,2013-07-02 21:52:00,
2013-07-02 14:57:00,78.1,62.1,30.13,SE,143,3.0,8.0,58,0.00,,,0.00,WeatherCatV1.15B25,2013-07-02 21:57:00,
2013-07-02 15:02:00,78.7,57.3,30.13,West,280,6.0,8.0,48,0.00,,,0.00,WeatherCatV1.15B25,2013-07-02 22:02:00,
2013-07-02 15:07:00,78.3,55.2,30.13,NW,319,3.0,11.0,45,0.00,,,0.00,WeatherCatV1.15B25,2013-07-02 22:07:00,
2013-07-02 15:12:00,78.5,54.7,30.13,WNW,291,6.0,11.0,44,0.00,,,0.00,WeatherCatV1.15B25,2013-07-02 22:12:00,
2013-07-02 15:17:00,79.3,57.3,30.13,NNW,329,4.0,6.0,47,0.00,,,0.00,WeatherCatV1.15B25,2013-07-02 22:17:00,
2013-07-02 15:22:00,79.7,53.9,30.13,NNE,22,10.0,14.0,41,0.00,,,0.00,WeatherCatV1.15B25,2013-07-02 22:22:00,
2013-07-02 15:27:00,79.3,54.2,30.13,NNW,330,5.0,8.0,42,0.00,,,0.00,WeatherCatV1.15B25,2013-07-02 22:27:00,
2013-07-02 15:32:00,79.8,52.6,30.13,NW,321,4.0,14.0,39,0.00,,,0.00,WeatherCatV1.15B25,2013-07-02 22:32:00,
2013-07-02 15:37:00,79.4,50.8,30.14,WNW,291,6.0,14.0,37,0.00,,,0.00,WeatherCatV1.15B25,2013-07-02 22:37:00,
2013-07-02 15:42:00,79.2,51.4,30.13,West,271,16.0,16.0,38,0.00,,,0.00,WeatherCatV1.15B25,2013-07-02 22:42:00,
2013-07-02 15:47:00,78.4,52.1,30.13,WNW,302,5.0,8.0,40,0.00,,,0.00,WeatherCatV1.15B25,2013-07-02 22:47:00,
2013-07-02 15:52:00,78.6,53.6,30.13,NW,323,3.0,8.0,42,0.00,,,0.00,WeatherCatV1.15B25,2013-07-02 22:52:00,
2013-07-02 15:57:00,79.2,54.7,30.13,WNW,290,1.0,5.0,43,0.00,,,0.00,WeatherCatV1.15B25,2013-07-02 22:57:00,
2013-07-02 16:02:00,79.5,53.7,30.12,NW,305,4.0,8.0,41,0.00,,,0.00,WeatherCatV1.15B25,2013-07-02 23:02:00,
2013-07-02 16:07:00,79.1,54.0,30.13,West,259,1.0,3.0,42,0.00,,,0.00,WeatherCatV1.15B25,2013-07-02 23:07:00,
2013-07-02 16:12:00,79.5,55.0,30.12,NW,311,3.0,6.0,43,0.00,,,0.00,WeatherCatV1.15B25,2013-07-02 23:12:00,
2013-07-02 16:17:00,79.3,55.5,30.12,West,267,1.0,6.0,44,0.00,,,0.00,WeatherCatV1.15B25,2013-07-02 23:17:00,
2013-07-02 16:22:00,79.3,54.2,30.12,WNW,295,4.0,7.0,42,0.00,,,0.00,WeatherCatV1.15B25,2013-07-02 23:22:00,
2013-07-02 16:27:00,79.9,55.4,30.12,WNW,301,4.0,9.0,43,0.00,,,0.00,WeatherCatV1.15B25,2013-07-02 23:27:00,
2013-07-02 16:32:00,79.5,53.7,30.12,NW,304,1.0,7.0,41,0.00,,,0.00,WeatherCatV1.15B25,2013-07-02 23:32:00,
2013-07-02 16:37:00,80.1,54.9,30.12,NW,307,5.0,10.0,42,0.00,,,0.00,WeatherCatV1.15B25,2013-07-02 23:37:00,
2013-07-02 16:42:00,80.0,55.5,30.12,North,3,3.0,9.0,43,0.00,,,0.00,WeatherCatV1.15B25,2013-07-02 23:42:00,
2013-07-02 16:47:00,80.3,55.1,30.12,NNE,30,6.0,10.0,42,0.00,,,0.00,WeatherCatV1.15B25,2013-07-02 23:47:00,
2013-07-02 16:52:00,80.1,56.2,30.12,NNW,328,3.0,8.0,44,0.00,,,0.00,WeatherCatV1.15B25,2013-07-02 23:52:00,
2013-07-02 16:57:00,80.3,57.0,30.12,NE,52,1.0,8.0,45,0.00,,,0.00,WeatherCatV1.15B25,2013-07-02 23:57:00,
2013-07-02 17:02:00,81.2,57.2,30.12,WNW,287,3.0,5.0,44,0.00,,,0.00,WeatherCatV1.15B25,2013-07-03 00:02:00,
2013-07-02 17:05:00,81.6,58.2,30.12,WNW,300,0.0,5.0,45,0.00,,,0.00,WeatherCatV1.15B25,2013-07-03 00:05:00,
2013-07-02 17:10:00,81.5,56.8,30.11,West,280,6.0,9.0,43,0.00,,,0.00,WeatherCatV1.15B25,2013-07-03 00:10:00,
2013-07-02 17:15:00,80.6,56.6,30.11,NW,305,4.0,11.0,44,0.00,,,0.00,WeatherCatV1.15B25,2013-07-03 00:15:00,
2013-07-02 17:20:00,80.6,56.0,30.11,NW,322,5.0,9.0,43,0.00,,,0.00,WeatherCatV1.15B25,2013-07-03 00:20:00,
2013-07-02 17:25:00,80.6,56.0,30.11,NW,319,5.0,9.0,43,0.00,,,0.00,WeatherCatV1.15B25,2013-07-03 00:25:00,
2013-07-02 17:30:00,81.0,55.7,30.11,WNW,298,4.0,8.0,42,0.00,,,0.00,WeatherCatV1.15B25,2013-07-03 00:30:00,
2013-07-02 17:35:00,80.5,55.9,30.11,North,358,2.0,5.0,43,0.00,,,0.00,WeatherCatV1.15B25,2013-07-03 00:35:00,
2013-07-02 17:40:00,80.4,55.2,30.11,WSW,252,4.0,6.0,42,0.00,,,0.00,WeatherCatV1.15B25,2013-07-03 00:40:00,
2013-07-02 17:45:00,80.1,54.9,30.11,NW,323,8.0,8.0,42,0.00,,,0.00,WeatherCatV1.15B25,2013-07-03 00:45:00,
2013-07-02 17:50:00,80.2,55.6,30.11,NNE,18,1.0,8.0,43,0.00,,,0.00,WeatherCatV1.15B25,2013-07-03 00:50:00,
2013-07-02 17:55:00,80.4,53.1,30.11,NNE,25,3.0,10.0,39,0.00,,,0.00,WeatherCatV1.15B25,2013-07-03 00:55:00,
2013-07-02 17:59:00,80.7,53.4,30.11,NNW,343,6.0,12.0,39,0.00,,,0.00,WeatherCatV1.15B25,2013-07-03 00:59:00,
2013-07-02 18:04:00,80.6,53.3,30.11,West,276,5.0,8.0,39,0.00,,,0.00,WeatherCatV1.15B25,2013-07-03 01:04:00,
2013-07-02 18:09:00,80.3,54.4,30.10,WNW,302,3.0,6.0,41,0.00,,,0.00,WeatherCatV1.15B25,2013-07-03 01:09:00,
2013-07-02 18:14:00,80.5,55.3,30.10,NW,304,3.0,4.0,42,0.00,,,0.00,WeatherCatV1.15B25,2013-07-03 01:14:00,
2013-07-02 18:19:00,80.8,56.8,30.10,NW,323,5.0,5.0,44,0.00,,,0.00,WeatherCatV1.15B25,2013-07-03 01:19:00,
2013-07-02 18:24:00,80.2,56.3,30.10,North,352,6.0,7.0,44,0.00,,,0.00,WeatherCatV1.15B25,2013-07-03 01:24:00,
2013-07-02 18:29:00,79.3,56.7,30.10,WNW,300,3.0,11.0,46,0.00,,,0.00,WeatherCatV1.15B25,2013-07-03 01:29:00,
2013-07-02 18:34:00,79.0,56.4,30.10,West,277,2.0,7.0,46,0.00,,,0.00,WeatherCatV1.15B25,2013-07-03 01:34:00,
2013-07-02 18:39:00,79.0,55.8,30.10,WNW,282,2.0,6.0,45,0.00,,,0.00,WeatherCatV1.15B25,2013-07-03 01:39:00,
2013-07-02 18:44:00,79.4,55.6,30.09,NNW,328,3.0,5.0,44,0.00,,,0.00,WeatherCatV1.15B25,2013-07-03 01:44:00,
2013-07-02 18:46:00,79.4,55.6,30.10,North,353,2.0,2.0,44,0.00,,,0.00,WeatherCatV1.15B25,2013-07-03 01:46:00,
2013-07-02 18:49:00,79.6,56.4,30.09,WNW,293,4.0,8.0,45,0.00,,,0.00,WeatherCatV1.15B25,2013-07-03 01:49:00,
2013-07-02 18:54:00,79.1,56.5,30.09,North,9,7.0,9.0,46,0.00,,,0.00,WeatherCatV1.15B25,2013-07-03 01:54:00,
2013-07-02 18:59:00,78.7,54.9,30.09,NW,317,7.0,11.0,44,0.00,,,0.00,WeatherCatV1.15B25,2013-07-03 01:59:00,
2013-07-02 19:04:00,78.3,53.3,30.09,North,351,5.0,9.0,42,0.00,,,0.00,WeatherCatV1.15B25,2013-07-03 02:04:00,
2013-07-02 19:09:00,77.7,52.8,30.09,NW,321,5.0,12.0,42,0.00,,,0.00,WeatherCatV1.15B25,2013-07-03 02:09:00,
2013-07-02 19:14:00,78.0,53.0,30.09,North,6,6.0,6.0,42,0.00,,,0.00,WeatherCatV1.15B25,2013-07-03 02:14:00,
2013-07-02 19:19:00,77.8,52.2,30.09,NNW,335,7.0,9.0,41,0.00,,,0.00,WeatherCatV1.15B25,2013-07-03 02:19:00,
2013-07-02 19:24:00,77.9,52.3,30.09,NNE,29,2.0,3.0,41,0.00,,,0.00,WeatherCatV1.15B25,2013-07-03 02:24:00,
2013-07-02 19:29:00,78.1,51.8,30.09,NW,304,4.0,9.0,40,0.00,,,0.00,WeatherCatV1.15B25,2013-07-03 02:29:00,
2013-07-02 19:34:00,77.5,51.9,30.09,NNE,13,10.0,10.0,41,0.00,,,0.00,WeatherCatV1.15B25,2013-07-03 02:34:00,
2013-07-02 19:39:00,77.3,51.7,30.09,North,7,3.0,6.0,41,0.00,,,0.00,WeatherCatV1.15B25,2013-07-03 02:39:00,
2013-07-02 19:44:00,77.4,51.8,30.09,NNE,30,1.0,6.0,41,0.00,,,0.00,WeatherCatV1.15B25,2013-07-03 02:44:00,
2013-07-02 19:49:00,77.2,52.3,30.09,NNE,30,2.0,4.0,42,0.00,,,0.00,WeatherCatV1.15B25,2013-07-03 02:49:00,
2013-07-02 19:54:00,77.0,52.1,30.09,NE,39,3.0,4.0,42,0.00,,,0.00,WeatherCatV1.15B25,2013-07-03 02:54:00,
2013-07-02 19:59:00,76.7,52.5,30.09,North,9,2.0,3.0,43,0.00,,,0.00,WeatherCatV1.15B25,2013-07-03 02:59:00,
2013-07-02 20:04:00,76.3,52.8,30.09,North,350,1.0,1.0,44,0.00,,,0.00,WeatherCatV1.15B25,2013-07-03 03:04:00,
2013-07-02 20:09:00,75.8,52.3,30.09,NE,40,1.0,3.0,44,0.00,,,0.00,WeatherCatV1.15B25,2013-07-03 03:09:00,
2013-07-02 20:10:00,75.7,52.2,30.09,ENE,57,2.0,4.0,44,0.00,,,0.00,WeatherCatV1.15B25,2013-07-03 03:10:00,
2013-07-02 20:15:00,75.2,51.8,30.09,NE,34,3.0,5.0,44,0.00,,,0.00,WeatherCatV1.15B25,2013-07-03 03:15:00,
2013-07-02 20:20:00,74.7,51.9,30.09,NNW,344,2.0,4.0,45,0.00,,,0.00,WeatherCatV1.15B25,2013-07-03 03:20:00,
2013-07-02 20:25:00,74.3,51.6,30.09,North,11,3.0,10.0,45,0.00,,,0.00,WeatherCatV1.15B25,2013-07-03 03:25:00,
2013-07-02 20:30:00,73.9,52.4,30.08,NNW,345,6.0,6.0,47,0.00,,,0.00,WeatherCatV1.15B25,2013-07-03 03:30:00,
2013-07-02 20:35:00,73.5,52.6,30.08,NNE,19,5.0,10.0,48,0.00,,,0.00,WeatherCatV1.15B25,2013-07-03 03:35:00,
2013-07-02 20:40:00,73.0,52.7,30.08,NNE,25,7.0,9.0,49,0.00,,,0.00,WeatherCatV1.15B25,2013-07-03 03:40:00,
2013-07-02 20:45:00,72.5,52.8,30.08,NE,42,4.0,8.0,50,0.00,,,0.00,WeatherCatV1.15B25,2013-07-03 03:45:00,
2013-07-02 20:49:00,72.2,53.1,30.08,NW,325,1.0,3.0,51,0.00,,,0.00,WeatherCatV1.15B25,2013-07-03 03:49:00,
2013-07-02 20:54:00,72.0,52.9,30.08,NE,52,3.0,10.0,51,0.00,,,0.00,WeatherCatV1.15B25,2013-07-03 03:54:00,
2013-07-02 20:59:00,71.7,53.1,30.08,NNE,32,1.0,5.0,52,0.00,,,0.00,WeatherCatV1.15B25,2013-07-03 03:59:00,
2013-07-02 21:01:00,71.6,53.0,30.08,NNE,21,3.0,4.0,52,0.00,,,0.00,WeatherCatV1.15B25,2013-07-03 04:01:00,
2013-07-02 21:06:00,71.3,52.8,30.08,NNE,32,4.0,8.0,52,0.00,,,0.00,WeatherCatV1.15B25,2013-07-03 04:06:00,
2013-07-02 21:11:00,71.0,53.0,30.08,NW,316,3.0,6.0,53,0.00,,,0.00,WeatherCatV1.15B25,2013-07-03 04:11:00,
2013-07-02 21:16:00,70.8,52.8,30.08,East,98,2.0,4.0,53,0.00,,,0.00,WeatherCatV1.15B25,2013-07-03 04:16:00,
2013-07-02 21:21:00,70.6,52.6,30.09,NE,36,2.0,6.0,53,0.00,,,0.00,WeatherCatV1.15B25,2013-07-03 04:21:00,
2013-07-02 21:26:00,70.5,52.5,30.09,NNE,13,7.0,8.0,53,0.00,,,0.00,WeatherCatV1.15B25,2013-07-03 04:26:00,
2013-07-02 21:31:00,70.5,52.5,30.09,NE,36,1.0,5.0,53,0.00,,,0.00,WeatherCatV1.15B25,2013-07-03 04:31:00,
2013-07-02 21:36:00,70.3,52.3,30.09,NNE,18,2.0,4.0,53,0.00,,,0.00,WeatherCatV1.15B25,2013-07-03 04:36:00,
2013-07-02 21:41:00,70.0,52.6,30.09,NNE,27,3.0,5.0,54,0.00,,,0.00,WeatherCatV1.15B25,2013-07-03 04:41:00,
2013-07-02 21:46:00,69.9,52.0,30.09,NNE,25,3.0,6.0,53,0.00,,,0.00,WeatherCatV1.15B25,2013-07-03 04:46:00,
2013-07-02 21:51:00,70.1,52.2,30.09,NE,38,4.0,7.0,53,0.00,,,0.00,WeatherCatV1.15B25,2013-07-03 04:51:00,
2013-07-02 21:56:00,70.2,52.3,30.09,NNE,32,4.0,7.0,53,0.00,,,0.00,WeatherCatV1.15B25,2013-07-03 04:56:00,
2013-07-02 22:01:00,70.3,52.3,30.09,NE,36,8.0,9.0,53,0.00,,,0.00,WeatherCatV1.15B25,2013-07-03 05:01:00,
2013-07-02 22:06:00,70.3,52.3,30.09,NE,52,5.0,7.0,53,0.00,,,0.00,WeatherCatV1.15B25,2013-07-03 05:06:00,
2013-07-02 22:11:00,70.2,52.8,30.09,NE,53,6.0,6.0,54,0.00,,,0.00,WeatherCatV1.15B25,2013-07-03 05:11:00,
2013-07-02 22:16:00,70.1,53.2,30.09,North,8,3.0,7.0,55,0.00,,,0.00,WeatherCatV1.15B25,2013-07-03 05:16:00,
2013-07-02 22:21:00,70.0,53.1,30.09,NE,53,4.0,8.0,55,0.00,,,0.00,WeatherCatV1.15B25,2013-07-03 05:21:00,
2013-07-02 22:26:00,69.9,53.5,30.09,NE,39,2.0,4.0,56,0.00,,,0.00,WeatherCatV1.15B25,2013-07-03 05:26:00,
2013-07-02 22:29:00,69.7,53.3,30.09,NE,41,4.0,7.0,56,0.00,,,0.00,WeatherCatV1.15B25,2013-07-03 05:29:00,
2013-07-02 22:34:00,69.5,54.1,30.10,NE,36,3.0,6.0,58,0.00,,,0.00,WeatherCatV1.15B25,2013-07-03 05:34:00,
2013-07-02 22:39:00,69.4,54.0,30.10,ENE,69,4.0,8.0,58,0.00,,,0.00,WeatherCatV1.15B25,2013-07-03 05:39:00,
2013-07-02 22:44:00,69.0,54.1,30.10,East,80,2.0,4.0,59,0.00,,,0.00,WeatherCatV1.15B25,2013-07-03 05:44:00,
2013-07-02 22:49:00,68.9,54.4,30.10,East,98,2.0,2.0,60,0.00,,,0.00,WeatherCatV1.15B25,2013-07-03 05:49:00,
2013-07-02 22:54:00,68.5,54.5,30.10,NNE,26,0.0,4.0,61,0.00,,,0.00,WeatherCatV1.15B25,2013-07-03 05:54:00,
2013-07-02 22:56:00,68.3,54.3,30.11,NE,52,1.0,2.0,61,0.00,,,0.00,WeatherCatV1.15B25,2013-07-03 05:56:00,
2013-07-02 23:01:00,68.1,53.7,30.11,NNE,13,5.0,12.0,60,0.00,,,0.00,WeatherCatV1.15B25,2013-07-03 06:01:00,
2013-07-02 23:06:00,68.4,54.0,30.11,NE,40,2.0,5.0,60,0.00,,,0.00,WeatherCatV1.15B25,2013-07-03 06:06:00,
2013-07-02 23:11:00,68.4,53.5,30.11,ENE,67,3.0,5.0,59,0.00,,,0.00,WeatherCatV1.15B25,2013-07-03 06:11:00,
2013-07-02 23:16:00,68.4,53.5,30.11,NNE,21,3.0,7.0,59,0.00,,,0.00,WeatherCatV1.15B25,2013-07-03 06:16:00,
2013-07-02 23:21:00,68.2,53.3,30.11,NNE,18,4.0,10.0,59,0.00,,,0.00,WeatherCatV1.15B25,2013-07-03 06:21:00,
2013-07-02 23:26:00,67.9,53.5,30.11,NNE,28,2.0,8.0,60,0.00,,,0.00,WeatherCatV1.15B25,2013-07-03 06:26:00,
2013-07-02 23:30:00,67.7,53.8,30.11,East,81,10.0,14.0,61,0.00,,,0.00,WeatherCatV1.15B25,2013-07-03 06:30:00,
2013-07-02 23:31:00,67.7,53.8,30.11,ENE,69,11.0,14.0,61,0.00,,,0.00,WeatherCatV1.15B25,2013-07-03 06:31:00,
2013-07-02 23:36:00,67.6,53.7,30.11,East,83,2.0,8.0,61,0.00,,,0.00,WeatherCatV1.15B25,2013-07-03 06:36:00,
2013-07-02 23:41:00,67.3,53.4,30.11,NNW,335,2.0,3.0,61,0.00,,,0.00,WeatherCatV1.15B25,2013-07-03 06:41:00,
2013-07-02 23:46:00,67.1,53.2,30.12,NNE,22,1.0,4.0,61,0.00,,,0.00,WeatherCatV1.15B25,2013-07-03 06:46:00,
2013-07-02 23:51:00,66.9,53.0,30.12,NNE,23,4.0,8.0,61,0.00,,,0.00,WeatherCatV1.15B25,2013-07-03 06:51:00,
2013-07-02 23:56:00,66.9,52.6,30.12,NNE,23,7.0,11.0,60,0.00,,,0.00,WeatherCatV1.15B25,2013-07-03 06:56:00,